sat.trackr.live / text

‹ back to catalog

GHGSAT-C3

NORAD 52737 · 2022-057F

PAYLOAD ACTIVE UNKNOWN

§ Identity

Operator
Country
CA
Launch date
2022-05-25
Launch site
AFETR
Launch vehicle
Mass (kg)
RCS (m²)

External: N2YO · Heavens-Above · Gunter

§ Orbital elements

Epoch: 2026-09-20T22:38:00.502368Z

Period
93.79 min
Inclination
97.6727°
Eccentricity
0.0006759
Mean motion
15.35391597 rev/d
Perigee alt
455.1 km
Apogee alt
464.4 km
Semi-major
6,837.9 km
B*
1.4580e-4
RAAN
53.3456°
Arg perigee
133.3517°
Mean anomaly
226.8290°
Rev number
24,022

§ Raw data

GHGSAT-C31 52737U 22057F   26263.94306137  .00004928  00000+0  14580-3 0  99952 52737  97.6727  53.3456 0006759 133.3517 226.8290 15.35391597240227

JSON: /api/v1/satellites/52737 · /tle

For live sub-satellite position, see the globe view (requires WebGL).

§ Visibility from observer

Set your observer location to see the next 7 days of passes ≥ 10°. The values pass through the URL so the page stays shareable.

No JS? Fill the form by hand. The geolocation button needs JavaScript.